• In Uzbekistan
  • List of Countries
  • For 7 days
  • Water Temperature
  • Satellite Maps
  • Weather Map
  • Weather Widgets
  • user-avatar
    Login

    Hourly Weather Megri

    Today, 21 August, Monday

    Time Temperature Precipitation Wind Pressure Humidity
    00:00 +20°C° 0 mm 3 mps 624 mmHg 48%
    01:00 +20°C° 0 mm 3 mps 624 mmHg 49%
    02:00 +19°C° 0 mm 2 mps 624 mmHg 50%
    03:00 +19°C° 0 mm 2 mps 624 mmHg 50%
    04:00 +19°C° 0 mm 2 mps 624 mmHg 51%
    05:00 +19°C° 0 mm 2 mps 624 mmHg 51%
    06:00 +19°C° 0 mm 2 mps 624 mmHg 51%
    07:00 +21°C° 0 mm 2 mps 625 mmHg 46%
    08:00 +24°C° 0 mm 2 mps 625 mmHg 41%
    09:00 +26°C° 0 mm 2 mps 626 mmHg 36%
    10:00 +27°C° 0 mm 2 mps 626 mmHg 33%
    11:00 +28°C° 0 mm 2 mps 626 mmHg 29%
    12:00 +30°C° 0 mm 2 mps 626 mmHg 26%
    13:00 +30°C° 0 mm 2 mps 626 mmHg 24%
    14:00 +31°C° 0 mm 2 mps 626 mmHg 23%
    15:00 +32°C° 0 mm 2 mps 626 mmHg 22%
    16:00 +31°C° 0 mm 2 mps 625 mmHg 25%
    17:00 +30°C° 0 mm 3 mps 625 mmHg 28%
    18:00 +29°C° 0 mm 3 mps 624 mmHg 30%
    19:00 +27°C° 0 mm 3 mps 624 mmHg 37%
    20:00 +26°C° 0 mm 3 mps 624 mmHg 43%
    21:00 +24°C° 0 mm 3 mps 624 mmHg 50%
    22:00 +22°C° 0 mm 3 mps 624 mmHg 52%
    23:00 +22°C° 0 mm 3 mps 624 mmHg 54%

    Tomorrow, 22 August, Tuesday

    Time Temperature Precipitation Wind Pressure Humidity
    00:00 +21°C° 0 mm 2 mps 623 mmHg 56%
    01:00 +21°C° 0 mm 2 mps 623 mmHg 56%
    02:00 +20°C° 0 mm 2 mps 623 mmHg 56%
    03:00 +20°C° 0 mm 2 mps 623 mmHg 56%
    04:00 +20°C° 0 mm 2 mps 623 mmHg 56%
    05:00 +20°C° 0 mm 2 mps 623 mmHg 55%
    06:00 +20°C° 0 mm 2 mps 623 mmHg 54%
    07:00 +23°C° 0 mm 2 mps 624 mmHg 46%
    08:00 +25°C° 0 mm 2 mps 625 mmHg 39%
    09:00 +27°C° 0 mm 2 mps 625 mmHg 31%
    10:00 +29°C° 0 mm 2 mps 625 mmHg 27%
    11:00 +30°C° 0 mm 2 mps 625 mmHg 24%
    12:00 +32°C° 0 mm 2 mps 626 mmHg 20%
    13:00 +32°C° 0 mm 2 mps 625 mmHg 19%
    14:00 +34°C° 0 mm 2 mps 625 mmHg 18%
    15:00 +34°C° 0 mm 2 mps 624 mmHg 17%
    16:00 +32°C° 0 mm 2 mps 624 mmHg 20%
    17:00 +31°C° 0 mm 3 mps 624 mmHg 22%
    18:00 +30°C° 0 mm 4 mps 623 mmHg 24%
    19:00 +29°C° 0 mm 4 mps 623 mmHg 29%
    20:00 +27°C° 0 mm 4 mps 623 mmHg 35%
    21:00 +25°C° 0 mm 4 mps 623 mmHg 40%
    22:00 +24°C° 0 mm 3 mps 622 mmHg 41%
    23:00 +24°C° 0 mm 3 mps 622 mmHg 43%

    Day after tomorrow, 23 August, Wednesday

    Time Temperature Precipitation Wind Pressure Humidity
    00:00 +22°C° 0 mm 3 mps 622 mmHg 44%
    01:00 +22°C° 0 mm 3 mps 622 mmHg 44%
    02:00 +21°C° 0 mm 3 mps 622 mmHg 44%
    03:00 +21°C° 0 mm 3 mps 622 mmHg 45%
    04:00 +21°C° 0 mm 3 mps 622 mmHg 44%
    05:00 +21°C° 0 mm 2 mps 622 mmHg 44%
    06:00 +21°C° 0 mm 2 mps 623 mmHg 43%
    07:00 +24°C° 0 mm 3 mps 624 mmHg 38%
    08:00 +26°C° 0 mm 3 mps 624 mmHg 32%
    09:00 +28°C° 0 mm 3 mps 625 mmHg 27%
    10:00 +29°C° 0 mm 3 mps 625 mmHg 24%
    11:00 +31°C° 0 mm 3 mps 626 mmHg 21%
    12:00 +32°C° 0 mm 2 mps 626 mmHg 18%
    13:00 +34°C° 0 mm 3 mps 625 mmHg 18%
    14:00 +34°C° 0 mm 3 mps 625 mmHg 17%
    15:00 +35°C° 0 mm 3 mps 625 mmHg 17%
    16:00 +33°C° 0 mm 3 mps 625 mmHg 20%
    17:00 +32°C° 0 mm 4 mps 624 mmHg 24%
    18:00 +30°C° 0 mm 4 mps 624 mmHg 27%
    19:00 +28°C° 0 mm 4 mps 624 mmHg 32%
    20:00 +26°C° 0 mm 4 mps 624 mmHg 36%
    21:00 +23°C° 0 mm 4 mps 624 mmHg 40%
    22:00 +23°C° 0 mm 4 mps 624 mmHg 40%
    23:00 +22°C° 0 mm 4 mps 624 mmHg 41%

    24 August, Thursday

    Time Temperature Precipitation Wind Pressure Humidity
    00:00 +21°C° 0 mm 3 mps 624 mmHg 41%
    01:00 +21°C° 0 mm 3 mps 624 mmHg 42%
    02:00 +20°C° 0 mm 3 mps 624 mmHg 44%
    03:00 +20°C° 0 mm 3 mps 624 mmHg 46%
    04:00 +20°C° 0 mm 3 mps 624 mmHg 47%
    05:00 +19°C° 0 mm 3 mps 625 mmHg 48%
    06:00 +19°C° 0 mm 3 mps 625 mmHg 49%
    07:00 +21°C° 0 mm 3 mps 626 mmHg 43%
    08:00 +23°C° 0 mm 4 mps 626 mmHg 37%
    09:00 +26°C° 0 mm 4 mps 627 mmHg 30%
    10:00 +28°C° 0 mm 4 mps 628 mmHg 28%
    11:00 +29°C° 0 mm 4 mps 628 mmHg 25%
    12:00 +32°C° 0 mm 4 mps 628 mmHg 22%
    13:00 +32°C° 0 mm 5 mps 628 mmHg 21%
    14:00 +33°C° 0 mm 5 mps 628 mmHg 21%
    15:00 +33°C° 0 mm 5 mps 628 mmHg 21%
    16:00 +32°C° 0 mm 5 mps 627 mmHg 24%
    17:00 +29°C° 0 mm 5 mps 627 mmHg 27%
    18:00 +28°C° 0 mm 6 mps 626 mmHg 30%
    19:00 +26°C° 0 mm 5 mps 626 mmHg 32%
    20:00 +25°C° 0 mm 5 mps 626 mmHg 33%
    21:00 +22°C° 0 mm 4 mps 626 mmHg 35%
    22:00 +22°C° 0 mm 4 mps 626 mmHg 35%
    23:00 +21°C° 0 mm 3 mps 626 mmHg 35%

    25 August, Friday

    Time Temperature Precipitation Wind Pressure Humidity
    00:00 +20°C° 0 mm 3 mps 626 mmHg 35%
    01:00 +20°C° 0 mm 3 mps 626 mmHg 35%
    02:00 +20°C° 0 mm 3 mps 626 mmHg 35%
    03:00 +19°C° 0 mm 3 mps 626 mmHg 34%
    04:00 +19°C° 0 mm 3 mps 626 mmHg 34%
    05:00 +19°C° 0 mm 3 mps 626 mmHg 34%
    06:00 +19°C° 0 mm 3 mps 626 mmHg 34%
    07:00 +21°C° 0 mm 3 mps 627 mmHg 30%
    08:00 +24°C° 0 mm 3 mps 628 mmHg 25%
    09:00 +26°C° 0 mm 3 mps 628 mmHg 21%
    10:00 +28°C° 0 mm 3 mps 628 mmHg 19%
    11:00 +29°C° 0 mm 4 mps 629 mmHg 17%
    12:00 +32°C° 0 mm 4 mps 629 mmHg 15%
    13:00 +32°C° 0 mm 4 mps 628 mmHg 15%
    14:00 +33°C° 0 mm 4 mps 628 mmHg 15%
    15:00 +33°C° 0 mm 4 mps 628 mmHg 14%
    16:00 +32°C° 0 mm 5 mps 627 mmHg 16%
    17:00 +29°C° 0 mm 5 mps 627 mmHg 18%
    18:00 +28°C° 0 mm 5 mps 627 mmHg 21%
    19:00 +26°C° 0 mm 5 mps 626 mmHg 23%
    20:00 +25°C° 0 mm 4 mps 626 mmHg 25%
    21:00 +22°C° 0 mm 4 mps 626 mmHg 27%
    22:00 +21°C° 0 mm 4 mps 626 mmHg 27%
    23:00 +21°C° 0 mm 3 mps 626 mmHg 28%

    26 August, Saturday

    Time Temperature Precipitation Wind Pressure Humidity
    00:00 +20°C° 0 mm 3 mps 626 mmHg 29%
    01:00 +20°C° 0 mm 3 mps 625 mmHg 30%
    02:00 +19°C° 0 mm 3 mps 625 mmHg 31%
    03:00 +19°C° 0 mm 3 mps 625 mmHg 32%
    04:00 +19°C° 0 mm 3 mps 625 mmHg 33%
    05:00 +18°C° 0 mm 3 mps 626 mmHg 33%
    06:00 +18°C° 0 mm 3 mps 626 mmHg 34%
    07:00 +20°C° 0 mm 3 mps 626 mmHg 30%
    08:00 +22°C° 0 mm 3 mps 627 mmHg 25%
    09:00 +26°C° 0 mm 4 mps 628 mmHg 21%
    10:00 +27°C° 0 mm 4 mps 628 mmHg 19%
    11:00 +28°C° 0 mm 4 mps 628 mmHg 17%
    12:00 +30°C° 0 mm 4 mps 628 mmHg 16%
    13:00 +30°C° 0 mm 4 mps 627 mmHg 16%
    14:00 +30°C° 0 mm 4 mps 627 mmHg 16%
    15:00 +32°C° 0 mm 5 mps 627 mmHg 15%
    16:00 +30°C° 0 mm 5 mps 626 mmHg 18%
    17:00 +28°C° 0 mm 5 mps 626 mmHg 20%
    18:00 +27°C° 0 mm 5 mps 625 mmHg 22%
    19:00 +25°C° 0 mm 5 mps 625 mmHg 25%
    20:00 +23°C° 0 mm 5 mps 625 mmHg 27%
    21:00 +21°C° 0 mm 4 mps 625 mmHg 30%
    22:00 +20°C° 0 mm 4 mps 625 mmHg 31%
    23:00 +19°C° 0 mm 4 mps 625 mmHg 32%
    Show more